Showing default

ANNA 1B, 446

Orbit data source: Space-Track

ANNA 1B, 446 is a payload satellite owned by USN BuWeps (US) in LEO that was launched on Wed, 31 Oct 1962 UTC via a THOR ABLESTAR launch vehicle from the Air Force Eastern Test Range (AFETR). Payloads include a variety of satellites, spacecraft, and rockets equipped with specific instruments for various scientific and technological missions. These include communications satellites like Starlink; space stations such as the ISS; scientific satellites like the Hubble; Earth observation satellites from companies like Planet Labs, Umbra, and HawkEye 360; GPS; miniature CubeSats for education and research; and military/defense satellites.

Loading next visibility...
ANNA 1B details
Identifier
446, 1962-060A
Orbit
LEO
Last TLE update18 hours ago
Origin
Flag of USUSN BuWeps (US)
ManufacturerAPL
MissionDefense Geodetic
Bus & MotorTRANSIT 1, Unknown motor
Mass157 kg wet, 157 kg dry
Launch date (UTC)
1962-10-31 (62 years ago)
Launch vehicle
THOR ABLESTAR
Launch site
Air Force Eastern Test Range (AFETR)
Object type
Payload
Rocket body
Debris
Shape & HBRSphere, 1.22 m
Radar Cross Section0.977 m², Medium (>0.1 m² and < 1m²)

Expand to show TLE details & history

TLE from 18 hours ago
0 ANNA 1B
1 00446U 62060A   25014.44655715 -.00000094  00000-0  61975-4 0  9993
2 00446  50.1427  70.1702 0070101 275.6739 184.1776 13.35338645 34394
Epoch: 2025-01-14T10:43Z
Definitive object data (Epoch: 2025-01-14T10:43:02.537Z)
Latitude49.29457°
Longitude-99.65367°
Altitude1,184.605 km
Speed7.242 km/s
True Right ascension11h 41m 02s
True Declination49° 08' 03"
Sunlit
Object was in full shadow at TLE epoch
Visualization TLE readout
Latitude48.11445°
Longitude-95.3072°
Altitude1,184.102 km
Speed7.242 km/s
Apparent Right ascension14h 36m 46s
Apparent Declination11° 26' 45"
Sunlit
Object is in full shadow
Visualization observer readout
Local Sidereal Time05:21:18
Azimuth45.849° ENE
Elevation-26.031°
Doppler factor1
Orbital elements
Apogee altitude1,179.994 km
Perigee altitude1,074.765 km
Semi-major axis7,505.517 km
Eccentricity0.0070101
Inclination50.1427°
RAAN70.1702°
Arg. of periapsis275.6739°
True anomaly184.11959°
Mean anomaly184.1776°
Eccentric anomaly184.14854°
Mean motion3.33789 °/min
BSTAR0.000061975
Orbital period107.85 mins
Loading maneuver chart data...
Loading historical data...
Loading historical data...
Loading historical data...
Loading historical data...
Loading historical data...
Loading historical data...
Loading historical data...
Other satellites on launch #60 in the year 1962 (1962-10-31 UTC)

ANNA 1B Visibility forecast

Observer location: undefined°, undefined

Span
Click to sort rows by Start time (UTC) header in descending order
Start Az.
Max El. time (UTC)
Max El. Az.
Max El.
End time (UTC)
End Az.
14 mins2025-01-15 06:07:12.355Z219.234° SW2025-01-15 06:14:12.355Z126.946° SE42.594°2025-01-15 06:21:12.355Z59.186° ENE
12 mins2025-01-15 08:02:12.355Z271.326° WNW2025-01-15 08:07:12.355Z333.396° NNW37.501°2025-01-15 08:14:12.355Z53.251° ENE
12 mins2025-01-15 09:56:12.355Z300.666° NW2025-01-15 10:02:12.355Z6.801° NNE31.774°2025-01-15 10:08:12.355Z67.489° ENE
13 mins2025-01-15 11:50:12.355Z308.626° NW2025-01-15 11:56:12.355Z20.071° NNE41.106°2025-01-15 12:03:12.355Z105.086° ESE
12 mins2025-01-15 13:44:12.355Z291.236° WNW2025-01-15 13:49:12.355Z232.719° WSW36.785°2025-01-15 13:56:12.355Z154.496° SSE
|